This demonstration page uses our WeatherBlox Daily Observations layout. Learn more.

Left ArrowRight Arrow

44.8408, -93.29828

Hourly Observations for March 1, 2018

Temp ( °F °C ) Dew Point ( °F °C ) Humidity (%) Winds ( mph kmh ) Pressure ( in mb ) Visibility ( mi km ) Precip ( " mm )
12:53 am 00:53 Cloudy 36 2.2 23 -5 59 59 NNW 9 15 29.99 1016 10 16 0.00 0.00
1:53 am 01:53 Mostly Cloudy 34 1.1 23 -5 64 64 NW 10 17 30.00 1016 10 16 0.00 0.00
2:53 am 02:53 Mostly Cloudy 32 0 22 -5.6 66 66 NNW 8 13 30.00 1016 10 16 0.00 0.00
3:53 am 03:53 Partly Cloudy 31 -0.6 21 -6.1 67 67 NNW 9 15 30.01 1016 10 16 0.00 0.00
4:53 am 04:53 Mostly Clear 27 -2.8 19 -7.2 72 72 NW 8 13 30.04 1017 10 16 0.00 0.00
5:53 am 05:53 Clear 25 -3.9 18 -7.8 75 75 WNW 5 7 30.06 1018 10 16 0.00 0.00
6:53 am 06:53 Sunny 23 -5 17 -8.3 78 78 WNW 8 13 30.08 1019 10 16 0.00 0.00
7:53 am 07:53 Sunny 26 -3.3 18 -7.8 71 71 NW 7 11 30.10 1019 10 16 0.00 0.00
8:53 am 08:53 Sunny 29 -1.7 19 -7.2 66 66 WNW 5 7 30.11 1020 10 16 0.00 0.00
9:53 am 09:53 Sunny 32 0 20 -6.7 61 61 NNW 5 7 30.13 1020 10 16 0.00 0.00
10:53 am 10:53 Sunny 35 1.7 20 -6.7 54 54 NW 10 17 30.14 1021 10 16 0.00 0.00
11:53 am 11:53 Sunny 36 2.2 22 -5.6 57 57 WNW 14 22 30.15 1021 10 16 0.00 0.00
12:53 pm 12:53 Sunny 38 3.3 23 -5 55 55 NW 15 24 30.16 1021 10 16 0.00 0.00
1:53 pm 13:53 Sunny 39 3.9 23 -5 53 53 NW 13 20 30.17 1022 10 16 0.00 0.00
2:53 pm 14:53 Sunny 40 4.4 22 -5.6 49 49 NW 16 26 30.19 1022 10 16 0.00 0.00
3:53 pm 15:53 Sunny 41 5 22 -5.6 47 47 NW 13 20 30.20 1023 10 16 0.00 0.00
4:53 pm 16:53 Sunny 40 4.4 23 -5 51 51 WNW 12 19 30.23 1024 10 16 0.00 0.00
5:53 pm 17:53 Sunny 37 2.8 24 -4.4 59 59 W 7 11 30.24 1024 10 16 0.00 0.00
6:53 pm 18:53 Clear 36 2.2 24 -4.4 62 62 W 6 9 30.27 1025 10 16 0.00 0.00
7:53 pm 19:53 Clear 34 1.1 24 -4.4 67 67 SW 7 11 30.29 1026 10 16 0.00 0.00
8:53 pm 20:53 Clear 31 -0.6 25 -3.9 79 79 SW 6 9 30.32 1027 10 16 0.00 0.00
9:53 pm 21:53 Clear 29 -1.7 23 -5 78 78 SW 5 7 30.34 1027 9 14 0.00 0.00
10:53 pm 22:53 Clear 26 -3.3 22 -5.6 84 84 WSW 5 7 30.36 1028 9 14 0.00 0.00
11:53 pm 23:53 Partly Cloudy 25 -3.9 21 -6.1 85 85 WSW 5 7 30.37 1029 9 14 0.00 0.00

Powered by AerisWeather